Nashua, NH

2:05 AM EDT on October 21, 2019 (GMT -0400)
Boire

Weather History for KASH - September, 2019

Change the Weather History Date:

Monday, September 16, 2019

  Actual Average Record
Temperature  
Mean Temperature 62 °F -  
Max Temperature 71 °F 71 °F 89 °F (1957)
Min Temperature 51 °F 48 °F 27 °F (1964)
Degree Days  
Heating Degree Days 3    
Growing Degree Days 12 (Base 50)    
Moisture  
Dew Point 50 °F    
Average Humidity 69    
Maximum Humidity 97    
Minimum Humidity 41    
Precipitation  
Precipitation 0.00 in - - ()
Sea Level Pressure  
Sea Level Pressure 30.07 in    
Wind  
Wind Speed 5 mph ()    
Max Wind Speed 14 mph    
Max Gust Speed 23 mph    
Visibility 10.0 miles    
Events      
Averages and records for this station are not official NWS values.
T = Trace of Precipitation, MM = Missing Value Source: Averaged Metar Reports

Daily Weather History Graph

Daily Weather History Graph

Search for Another Location

Airport or City:

Astronomy

Sep. 16, 2019 Rise Set
Actual Time 6:26 AM EDT 6:54 PM EDT
Civil Twilight 5:58 AM EDT 7:22 PM EDT
Nautical Twilight 5:24 AM EDT 7:56 PM EDT
Astronomical Twilight 4:50 AM EDT 8:30 PM EDT
Moon 8:25 PM EDT (9/16) 8:32 AM EDT (9/16)
Length of Visible Light 13h 24m
Length of Day
12h 27m
Waning Gibbous, 94% of the Moon is Illuminated
Sep 16
Waning Gibbous
Sep 21
Last Quarter
Sep 28
New
Oct 5
First Quarter
Oct 13
Full

Hourly Weather History & Observations

Time (EDT) Temp. Dew Point Humidity Pressure Visibility Wind Dir Wind Speed Gust Speed Precip Events Conditions
12:56 AM 60.1 °F 57.0 °F 90% 30.06 in 10.0 mi Calm Calm - N/A   Clear
1:56 AM 57.9 °F 57.0 °F 97% 30.04 in 10.0 mi West 3.5 mph - N/A   Clear
2:56 AM 57.0 °F 55.9 °F 96% 30.05 in 10.0 mi Calm Calm - N/A   Clear
3:56 AM 57.0 °F 55.9 °F 96% 30.07 in 10.0 mi WNW 3.5 mph - N/A   Partly Cloudy
4:56 AM 60.1 °F 54.0 °F 80% 30.07 in 10.0 mi NW 6.9 mph - N/A   Partly Cloudy
5:56 AM 57.0 °F 52.0 °F 83% 30.08 in 10.0 mi NW 5.8 mph - N/A   Clear
6:56 AM 57.0 °F 50.0 °F 77% 30.10 in 10.0 mi Calm Calm - N/A   Clear
7:56 AM 55.9 °F 52.0 °F 87% 30.11 in 10.0 mi WNW 4.6 mph - N/A   Clear
8:56 AM 59.0 °F 51.1 °F 75% 30.11 in 10.0 mi NW 6.9 mph - N/A   Clear
9:56 AM 63.0 °F 45.0 °F 52% 30.11 in 10.0 mi NW 13.8 mph 20.7 mph N/A   Clear
10:56 AM 64.9 °F 45.0 °F 48% 30.09 in 10.0 mi NW 12.7 mph 23.0 mph N/A   Partly Cloudy
11:56 AM 66.9 °F 45.0 °F 45% 30.06 in 10.0 mi NW 11.5 mph 20.7 mph N/A   Scattered Clouds
12:56 PM 69.1 °F 46.0 °F 44% 30.05 in 10.0 mi WNW 12.7 mph 16.1 mph N/A   Scattered Clouds
1:56 PM 70.0 °F 46.9 °F 44% 30.04 in 10.0 mi North 11.5 mph 21.9 mph N/A   Scattered Clouds
2:56 PM 70.0 °F 46.9 °F 44% 30.03 in 10.0 mi NNW 11.5 mph 17.3 mph N/A   Scattered Clouds
3:56 PM 71.1 °F 46.0 °F 41% 30.03 in 10.0 mi NNW 9.2 mph 18.4 mph N/A   Scattered Clouds
4:56 PM 70.0 °F 46.0 °F 42% 30.02 in 10.0 mi NW 10.4 mph - N/A   Scattered Clouds
5:56 PM 69.1 °F 46.9 °F 45% 30.03 in 10.0 mi North 4.6 mph - N/A   Scattered Clouds
6:56 PM 64.9 °F 46.9 °F 52% 30.04 in 10.0 mi Variable 4.6 mph - N/A   Partly Cloudy
7:56 PM 57.9 °F 51.1 °F 78% 30.06 in 10.0 mi NW 4.6 mph - N/A   Scattered Clouds
8:56 PM 55.9 °F 50.0 °F 80% 30.07 in 10.0 mi WNW 4.6 mph - N/A   Scattered Clouds
9:56 PM 54.0 °F 50.0 °F 86% 30.09 in 10.0 mi WNW 5.8 mph - N/A   Clear
10:56 PM 53.1 °F 48.9 °F 86% 30.10 in 10.0 mi WNW 4.6 mph - N/A   Clear
11:56 PM 51.1 °F 48.9 °F 92% 30.10 in 10.0 mi WNW 5.8 mph - N/A   Clear